Date,TemperatureHighF,TemperatureAvgF,TemperatureLowF,DewpointHighF,DewpointAvgF,DewpointLowF,HumidityHigh,HumidityAvg,HumidityLow,PressureMaxIn,PressureMinIn,WindSpeedMaxMPH,WindSpeedAvgMPH,GustSpeedMaxMPH,PrecipitationSumIn
2012-1-1,66.4,48.8,36.7,30.7,23.3,13.5,60,38,22,17.72,17.72,10,3,10,0.43
2012-1-2,54.1,36.3,26.4,19.4,10.6,3.1,47,34,23,29.62,17.72,8,2,11,0.00
2012-1-3,54.1,34.2,20.1,21.3,12.2,3.4,88,43,24,29.65,29.29,11,4,13,0.00
2012-1-4,76.8,45.2,29.3,35.1,25.1,12.4,87,49,21,29.38,29.23,5,1,6,0.00
2012-1-5,90.7,50.1,30.7,41.9,29.9,22.5,98,55,15,29.38,29.09,5,0,7,0.00
2012-1-6,81.9,52.6,34.7,48.3,36.7,24.5,94,60,26,29.09,28.94,10,2,13,0.00
2012-1-7,75.6,51.3,39.7,46.7,27.7,16.6,97,46,18,29.26,29.03,6,1,8,0.00
2012-1-8,48.2,45.4,40.5,25.1,21.7,15.8,54,39,29,29.35,29.23,6,1,8,0.00
2012-1-9,71.4,46.6,36.0,31.7,27.0,20.1,83,49,22,29.35,29.23,5,0,5,0.00
2012-1-10,49.1,40.7,33.8,40.8,31.1,21.8,98,72,36,29.23,28.85,8,1,10,0.75
2012-1-11,77.5,49.1,39.9,47.3,37.3,28.0,98,70,22,28.88,28.73,8,1,9,0.00
2012-1-12,39.7,27.8,24.6,31.9,15.5,6.6,89,60,43,29.15,28.88,9,4,12,0.00
2012-1-13,54.5,30.9,21.0,20.0,10.0,2.5,72,43,23,29.29,29.15,6,1,8,0.00
2012-1-14,66.2,39.5,25.2,30.2,22.0,11.0,93,53,25,29.44,29.12,7,1,10,0.00
2012-1-15,60.3,42.6,28.2,30.1,26.8,21.5,98,58,28,29.47,29.18,15,7,16,0.00
2012-1-16,68.9,61.2,48.4,54.8,45.9,28.0,69,57,42,29.18,28.85,19,8,19,0.43
2012-1-17,66.4,46.9,26.1,54.8,29.2,12.7,80,51,29,29.47,28.85,15,3,16,0.43
2012-1-18,47.7,30.7,18.1,17.8,14.0,11.4,84,52,30,29.47,29.15,9,3,10,0.43
2012-1-19,74.8,43.7,28.4,34.6,23.2,14.3,69,46,22,29.12,28.97,8,2,8,0.43
2012-1-20,39.4,35.6,31.3,38.9,31.7,23.3,98,86,69,29.12,28.88,11,3,14,0.00
2012-1-21,48.2,33.5,26.1,38.2,22.5,13.8,98,65,38,29.29,29.09,16,4,17,0.43
2012-1-22,58.5,41.8,30.6,52.0,39.8,28.1,98,94,36,29.09,28.64,15,7,17,0.43
2012-1-23,75.6,48.1,32.0,33.8,27.1,19.8,83,47,21,29.21,28.70,9,2,13,0.00
2012-1-24,67.3,44.5,28.6,36.9,26.1,18.1,98,56,22,29.38,29.21,10,3,11,0.00
2012-1-25,45.9,41.3,39.4,41.6,38.8,24.3,98,92,43,29.32,29.03,23,2,27,1.97
2012-1-26,55.6,41.9,35.2,47.2,39.7,34.1,98,92,56,29.03,28.88,5,0,7,0.04
2012-1-27,56.3,43.2,31.3,43.9,32.1,27.3,98,70,37,29.18,29.03,11,2,11,0.43
2012-1-28,69.4,41.4,28.6,37.2,24.2,12.3,90,56,20,29.53,29.18,6,1,9,0.00
2012-1-29,79.2,45.3,25.5,33.8,24.5,17.6,97,53,17,29.47,29.32,7,1,8,0.00
2012-1-30,78.8,52.1,33.6,40.0,30.2,23.6,79,47,24,29.35,29.15,12,4,15,0.00
2012-1-31,65.8,57.3,48.4,52.9,41.8,26.2,92,57,32,29.18,29.06,13,5,13,0.43
2012-2-1,66.2,52.0,38.8,55.0,45.8,38.3,98,82,41,29.29,29.15,4,0,5,0.43
2012-2-2,69.8,49.2,31.5,46.8,31.5,23.7,98,60,24,29.41,29.29,13,4,14,0.00
2012-2-3,51.6,48.2,44.2,50.2,41.0,27.3,98,80,39,29.32,29.09,17,6,21,0.75
2012-2-4,59.2,50.1,42.3,51.8,44.1,31.5,98,81,52,29.29,29.06,10,0,12,0.12
2012-2-5,46.2,41.0,34.7,34.9,32.1,29.6,90,71,54,29.44,29.29,6,1,7,0.00
2012-2-6,75.7,43.3,31.8,41.5,31.2,18.7,98,71,21,29.47,29.29,5,0,6,0.00
2012-2-7,52.0,39.8,29.8,40.8,32.4,28.8,98,77,45,29.44,29.35,3,0,4,0.00
2012-2-8,51.4,40.4,35.2,37.6,27.6,22.1,91,62,38,29.56,29.44,6,1,8,0.43
2012-2-9,45.1,39.2,35.4,28.7,25.0,20.0,75,57,40,29.50,29.29,9,3,9,0.00
2012-2-10,43.5,36.1,23.5,40.8,28.5,7.8,98,75,44,29.41,29.18,8,3,9,0.04
2012-2-11,52.2,26.6,15.4,18.0,6.7,0.9,61,44,25,29.74,29.41,6,2,8,0.00
2012-2-12,61.3,31.8,14.2,15.1,5.7,0.6,58,35,16,29.74,29.38,9,2,10,0.00
2012-2-13,34.9,31.6,28.0,32.9,25.4,6.9,98,81,31,29.38,29.00,15,8,17,0.04
2012-2-14,61.5,42.0,33.1,34.6,32.0,28.0,98,71,35,29.15,29.00,11,3,13,0.00
2012-2-15,48.2,43.3,37.8,46.0,40.9,33.1,98,91,78,29.18,29.03,11,4,12,0.20
2012-2-16,75.4,49.3,35.6,50.7,38.7,27.8,98,73,27,29.38,29.12,4,0,6,0.00
2012-2-17,55.4,45.0,35.8,40.3,36.1,32.4,98,73,47,29.35,29.21,8,2,10,0.00
2012-2-18,51.8,45.5,40.8,43.8,34.0,20.3,97,67,40,29.23,29.12,6,1,7,0.00
2012-2-19,77.0,48.6,34.0,35.6,25.8,17.4,88,45,18,29.23,29.15,10,1,11,0.00
2012-2-20,60.6,46.4,32.9,41.8,26.8,21.3,91,49,26,29.32,28.91,18,8,20,0.04
2012-2-21,82.8,52.2,38.7,37.2,27.8,17.7,71,42,16,29.15,28.94,11,1,14,0.00
2012-2-22,92.3,56.5,35.6,44.5,31.1,22.0,75,42,16,28.97,28.61,5,0,9,0.00
2012-2-23,98.8,63.4,45.5,44.7,33.8,24.9,56,36,15,28.82,28.38,9,2,10,0.00
2012-2-24,70.5,45.4,31.8,29.9,21.6,13.2,71,40,22,29.35,28.85,8,2,9,0.00
2012-2-25,74.5,46.8,28.9,32.1,21.8,16.5,82,40,19,29.47,29.26,11,2,13,0.00
2012-2-26,70.7,51.3,37.6,30.1,24.3,19.7,61,36,22,29.29,29.15,15,5,19,0.00
2012-2-27,88.0,57.4,42.3,39.2,29.0,20.2,71,37,16,29.47,29.29,6,1,8,0.00
2012-2-28,67.6,55.8,46.2,57.9,37.9,23.0,82,53,35,29.41,28.82,15,6,17,0.00
2012-2-29,83.8,60.8,42.3,57.3,37.5,19.3,97,49,19,29.03,28.82,17,2,19,0.47
2012-3-1,79.2,55.0,33.6,34.4,30.3,24.6,91,45,18,29.06,28.70,16,3,17,0.00
2012-3-2,79.7,57.4,33.3,57.5,39.0,27.6,89,54,22,29.06,28.53,9,3,12,0.00
2012-3-3,70.9,44.7,32.0,40.8,25.6,14.3,98,55,19,29.15,29.03,8,1,8,0.00
2012-3-4,80.4,51.2,28.0,37.9,27.7,22.8,98,49,17,29.21,28.97,7,1,10,0.00
2012-3-5,68.5,51.6,34.7,28.2,22.6,17.0,54,33,20,29.50,29.23,13,4,15,0.00
2012-3-6,73.6,59.9,44.4,36.3,29.6,20.4,41,32,21,29.35,29.12,22,7,24,0.00
2012-3-7,70.2,64.9,58.8,47.7,43.6,36.0,55,46,38,29.21,29.06,17,9,22,0.00
2012-3-8,65.5,46.7,33.8,60.1,43.9,33.3,98,91,51,29.56,29.09,8,1,9,0.94
2012-3-9,80.8,49.1,30.2,36.2,28.8,20.0,98,54,18,29.62,29.50,8,0,9,0.00
2012-3-10,72.5,51.6,34.5,33.7,27.1,21.7,91,44,21,29.56,29.32,10,3,13,0.00
2012-3-11,60.6,51.9,47.1,56.7,45.0,27.7,98,79,41,29.35,29.03,14,6,16,0.63
2012-3-12,89.4,66.3,56.5,56.0,45.8,35.6,90,53,19,29.12,29.00,12,5,15,0.00
2012-3-13,92.7,66.3,44.8,55.6,46.0,36.0,98,56,17,29.21,29.09,10,3,12,0.43
2012-3-14,93.4,72.2,59.0,58.2,52.7,45.5,89,55,22,29.21,29.12,10,3,14,0.00
2012-3-15,90.9,72.8,64.4,57.9,54.0,49.9,77,54,28,29.23,29.12,12,2,12,0.00
2012-3-16,94.3,71.1,59.2,58.0,54.0,47.7,88,58,24,29.23,29.09,8,4,13,0.00
2012-3-17,90.7,71.7,62.1,56.7,52.3,43.1,79,54,23,29.15,29.03,13,5,15,0.43
2012-3-18,85.5,70.8,61.3,59.2,53.6,46.2,87,57,29,29.15,29.03,14,6,15,0.00
2012-3-19,79.7,71.3,67.6,58.5,54.6,47.9,71,56,34,29.06,28.85,18,10,23,0.00
2012-3-20,73.0,64.4,58.3,63.2,55.8,49.6,98,76,47,29.00,28.88,24,4,25,1.30
2012-3-21,64.6,60.2,55.0,60.8,57.4,48.5,98,91,75,29.03,28.85,23,4,23,1.46
2012-3-22,71.8,56.1,49.5,52.3,48.7,39.4,98,79,35,29.12,29.00,14,3,14,0.31
2012-3-23,66.6,55.3,47.8,50.6,45.7,40.0,97,72,43,29.12,28.94,15,1,22,0.16
2012-3-24,91.2,63.6,47.8,53.7,46.3,39.6,98,61,21,29.12,29.03,6,0,7,0.00
2012-3-25,99.7,69.3,49.5,57.9,49.6,44.3,98,57,18,29.21,29.09,4,0,6,0.00
2012-3-26,92.3,70.1,54.3,61.2,51.5,47.0,95,56,24,29.26,29.09,11,4,12,0.00
2012-3-27,91.9,70.4,57.9,55.1,50.3,43.5,87,53,22,29.21,29.06,11,3,12,0.00
2012-3-28,96.6,70.3,55.0,61.0,49.7,42.0,97,55,21,29.18,29.03,8,2,9,0.00
2012-3-29,91.9,70.3,53.8,59.9,48.7,41.3,95,52,20,29.09,28.91,9,2,10,0.00
2012-3-30,103.3,71.7,57.9,62.0,54.2,45.0,98,60,17,28.97,28.82,8,2,9,0.00
2012-3-31,96.4,73.2,57.2,63.7,54.4,45.4,98,58,20,29.00,28.88,7,1,8,0.04
2012-4-1,100.9,76.7,61.0,62.1,57.1,51.7,94,56,22,28.91,28.70,11,4,13,0.00
2012-4-2,99.5,78.6,64.0,64.0,54.2,39.6,90,48,16,28.91,28.76,13,4,15,0.00
2012-4-3,91.9,72.4,62.4,61.6,54.6,47.2,85,57,27,29.03,28.88,8,2,9,0.00
2012-4-4,92.8,72.4,62.2,61.8,52.0,42.0,80,51,24,28.94,28.79,13,2,17,0.00
2012-4-5,81.1,62.5,53.6,55.1,49.7,44.3,97,67,31,29.09,28.79,8,1,11,0.43
2012-4-6,80.8,59.2,45.5,51.0,37.3,28.3,98,52,20,29.26,29.09,9,2,9,0.00
2012-4-7,72.1,58.1,44.8,58.4,40.8,29.8,98,56,27,29.38,29.15,21,1,21,0.00
2012-4-8,74.8,61.1,48.7,58.4,43.3,31.0,98,60,23,29.47,29.29,5,1,6,0.08
2012-4-9,92.1,65.1,48.0,58.0,45.6,35.6,98,58,17,29.32,29.15,4,0,4,0.00
2012-4-10,85.1,63.3,52.2,53.0,39.7,30.1,84,47,20,29.29,29.15,8,0,8,0.00
2012-4-11,84.0,58.5,45.5,41.5,30.6,18.9,76,39,19,29.38,29.23,5,0,5,0.00
2012-4-12,64.4,54.5,43.0,37.6,30.8,21.6,59,41,30,29.32,29.15,11,5,14,0.00
2012-4-13,74.5,64.8,52.7,55.4,44.9,32.9,61,49,40,29.18,29.03,17,6,17,0.00
2012-4-14,81.5,72.6,66.7,58.7,56.4,52.3,70,58,39,29.09,28.91,15,7,20,0.00
2012-4-15,72.7,66.4,55.0,64.7,56.0,49.7,95,71,47,28.94,28.76,19,8,20,0.91
2012-4-16,89.2,61.5,50.7,51.4,44.0,37.7,93,58,20,29.32,28.91,6,1,10,0.00
2012-4-17,78.1,60.9,45.5,58.5,44.0,36.8,98,60,25,29.41,29.29,10,2,10,0.00
2012-4-18,82.2,61.6,45.3,55.2,43.6,36.0,98,58,23,29.35,29.12,8,2,8,0.00
2012-4-19,82.2,66.1,51.4,51.8,44.4,38.7,85,49,23,29.15,28.88,13,4,17,0.00
2012-4-20,60.1,55.0,45.5,58.0,46.9,36.5,97,75,56,29.15,28.88,7,1,8,0.16
2012-4-21,84.0,55.8,39.6,46.8,39.4,34.5,98,61,22,29.15,29.03,4,0,6,0.00
2012-4-22,70.2,56.2,44.8,55.1,40.4,34.2,98,60,32,29.26,29.06,8,2,9,0.00
2012-4-23,81.5,56.8,41.0,48.6,37.6,30.0,98,56,20,29.29,29.12,6,1,8,0.00
2012-4-24,88.7,63.7,43.0,49.9,43.6,39.1,98,55,21,29.12,28.82,11,2,11,0.00
2012-4-25,102.0,76.6,57.7,61.0,52.8,43.1,86,48,18,28.88,28.70,10,2,11,0.00
2012-4-26,101.8,77.9,61.7,72.1,51.9,39.0,97,49,16,29.03,28.85,5,0,6,0.00
2012-4-27,71.1,65.6,61.3,55.6,48.0,40.7,76,54,42,29.09,28.88,19,6,23,0.00
2012-4-28,85.1,73.1,63.0,62.3,58.4,55.0,92,63,39,29.06,28.91,9,2,11,0.00
2012-4-29,88.5,73.9,66.9,62.2,58.8,50.8,82,61,30,29.15,29.03,10,4,11,0.00
2012-4-30,90.7,70.9,63.1,64.0,60.0,54.1,93,70,34,29.15,29.03,13,3,14,0.12
2012-5-1,92.7,74.7,60.8,64.2,59.7,53.7,95,64,30,29.09,28.94,15,5,15,0.24
2012-5-2,93.0,78.2,69.6,63.5,59.3,52.5,80,54,28,29.03,28.94,14,6,14,0.00
2012-5-3,87.1,74.8,68.4,66.7,63.8,59.6,86,70,42,29.09,29.00,13,6,13,0.00
2012-5-4,91.6,78.4,65.7,72.7,63.9,57.8,98,65,38,29.09,28.94,13,3,13,0.00
2012-5-5,96.3,79.2,66.9,69.3,63.2,53.1,96,62,29,29.03,28.91,9,3,10,0.00
2012-5-6,91.8,77.1,68.0,66.5,62.0,51.2,92,62,32,29.03,28.88,10,3,13,0.00
2012-5-7,99.3,73.8,63.9,65.8,59.2,52.6,90,64,22,29.09,28.94,8,1,8,0.00
2012-5-8,82.8,67.9,56.7,59.3,50.2,38.9,88,58,28,29.15,29.06,5,0,6,0.00
2012-5-9,91.9,67.1,53.8,62.3,45.3,32.6,98,55,17,29.15,29.03,5,0,7,0.00
2012-5-10,88.2,65.6,49.1,58.3,43.9,37.5,95,52,19,29.12,29.03,6,1,6,0.00
2012-5-11,76.5,65.2,52.9,59.0,47.7,41.8,93,56,32,29.21,29.06,9,2,10,0.00
2012-5-12,90.1,69.5,59.5,61.0,51.7,38.7,94,58,20,29.26,29.18,8,1,8,0.04
2012-5-13,93.9,71.3,55.4,61.5,49.7,40.8,98,54,19,29.26,29.15,6,1,6,0.00
2012-5-14,95.5,71.8,56.8,58.1,45.3,35.6,95,47,16,29.23,29.12,5,0,8,0.00
2012-5-15,98.8,71.0,52.7,55.3,46.3,36.2,93,49,16,29.18,29.06,4,0,4,0.00
2012-5-16,101.7,73.8,54.1,59.8,49.7,40.4,96,51,17,29.15,29.03,5,0,5,0.00
2012-5-17,96.4,72.4,55.0,55.6,44.9,38.5,87,43,17,29.15,29.03,6,2,6,0.00
2012-5-18,97.5,75.9,57.4,57.4,49.4,41.5,84,43,18,29.09,28.94,8,3,9,0.00
2012-5-19,92.7,78.5,63.7,61.0,54.4,49.3,88,47,24,29.12,29.00,13,4,13,0.00
2012-5-20,100.4,77.6,66.2,61.2,56.1,50.5,83,51,20,29.18,29.09,8,1,8,0.00
2012-5-21,92.8,73.0,58.8,62.3,47.7,34.2,82,47,18,29.26,29.15,10,2,10,0.00
2012-5-22,88.7,68.1,50.7,49.2,40.7,34.0,86,42,19,29.18,28.97,9,1,9,0.00
2012-5-23,91.9,74.4,58.1,52.8,45.5,39.7,69,37,21,28.97,28.76,12,5,17,0.00
2012-5-24,89.4,78.9,69.3,63.3,55.3,47.8,65,45,31,28.85,28.70,15,7,16,0.00
2012-5-25,94.3,81.6,74.3,65.2,61.6,56.8,68,52,31,29.06,28.85,10,2,10,0.00
2012-5-26,100.6,83.8,72.1,66.9,59.1,47.7,83,47,19,29.15,29.03,10,4,10,0.00
2012-5-27,99.1,83.8,68.7,64.6,54.7,45.7,82,41,18,29.12,28.94,11,4,11,0.00
2012-5-28,103.3,84.2,73.6,64.1,51.6,41.0,68,37,15,29.00,28.88,10,3,11,0.00
2012-5-29,97.9,79.9,67.1,66.9,56.3,45.9,97,49,21,29.00,28.88,6,1,6,0.16
2012-5-30,88.7,75.3,66.0,63.9,58.6,53.0,91,58,34,29.03,28.85,10,3,10,0.00
2012-5-31,93.2,71.8,61.2,66.4,56.3,45.2,96,61,29,28.97,28.82,9,2,9,0.04
2012-6-1,85.1,64.6,55.2,50.3,44.8,38.5,81,52,22,29.12,28.97,6,1,6,0.00
2012-6-2,98.4,71.6,55.4,54.8,48.6,43.6,87,48,19,29.06,28.91,6,1,6,0.00
2012-6-3,88.5,72.0,63.0,68.3,60.0,48.9,96,69,38,29.06,28.88,10,2,10,0.16
2012-6-4,104.2,78.5,67.1,71.2,63.2,51.6,98,66,20,28.97,28.85,6,1,6,0.00
2012-6-5,96.4,78.1,67.1,67.1,50.8,39.9,90,45,17,28.97,28.85,9,1,9,0.00
2012-6-6,94.3,75.5,61.5,55.7,47.3,41.2,73,40,18,29.09,28.97,8,1,8,0.00
2012-6-7,83.1,72.6,59.4,53.9,45.5,40.5,76,40,23,29.18,29.09,9,1,9,0.00
2012-6-8,90.7,73.2,56.3,56.6,48.5,40.1,93,49,20,29.18,28.97,10,1,10,0.00
2012-6-9,92.7,77.7,63.0,59.2,54.7,48.5,82,48,27,29.03,28.88,13,4,13,0.00
2012-6-10,89.1,78.8,70.9,65.4,61.7,53.9,80,57,36,28.94,28.88,14,7,15,0.00
2012-6-11,88.7,72.8,66.7,68.6,66.0,57.2,95,80,46,29.06,28.91,10,2,12,0.31
2012-6-12,101.1,76.8,63.7,68.7,54.6,39.4,98,57,15,29.21,29.06,5,0,5,0.00
2012-6-13,84.4,72.5,60.1,57.5,50.0,43.9,91,48,30,29.18,29.06,8,2,8,0.00
2012-6-14,93.6,76.2,58.3,62.0,51.7,43.3,96,49,20,29.12,28.97,13,3,13,0.00
2012-6-15,91.4,77.9,65.1,66.7,58.2,50.6,74,53,33,29.12,29.00,11,3,11,0.00
2012-6-16,96.6,82.6,68.0,68.6,60.2,52.8,94,51,28,29.18,29.03,10,3,10,0.00
2012-6-17,100.9,84.3,71.6,63.4,58.2,51.9,74,44,23,29.12,28.91,12,3,12,0.00
2012-6-18,95.9,83.7,73.2,64.3,57.8,49.6,68,44,23,28.97,28.88,13,7,14,0.00
2012-6-19,92.3,82.5,74.5,65.8,61.9,55.0,73,51,31,29.06,28.97,15,8,15,0.00
2012-6-20,95.2,84.1,74.7,63.4,56.6,48.1,66,41,24,29.12,29.00,13,6,13,0.00
2012-6-21,95.2,81.8,69.8,65.5,58.5,52.0,80,48,27,29.18,29.03,10,1,11,0.00
2012-6-22,107.4,83.5,70.3,65.4,54.5,43.6,81,43,15,29.12,28.97,6,1,6,0.00
2012-6-23,102.7,84.2,69.4,56.7,50.9,46.8,62,34,17,29.06,28.94,10,4,10,0.00
2012-6-24,111.4,87.5,67.8,60.8,52.8,48.0,70,34,14,29.06,28.94,8,1,8,0.00
2012-6-25,118.0,93.2,71.2,63.5,57.3,48.8,70,36,12,29.00,28.82,6,1,6,0.00
2012-6-26,99.7,85.7,74.1,60.7,47.7,38.5,48,28,17,29.00,28.91,9,4,9,0.00
2012-6-27,105.3,84.0,60.8,52.8,44.6,39.3,71,30,13,31.01,17.72,8,2,8,0.00
2012-6-28,121.5,90.1,65.7,59.5,48.3,38.0,71,30,8,31.01,17.72,8,1,8,0.00
2012-6-29,114.3,91.4,72.0,61.1,52.6,44.7,66,32,12,29.06,28.88,9,1,9,0.00
2012-6-30,112.8,91.9,72.5,64.3,53.6,44.8,71,32,13,29.00,28.88,8,1,9,0.00
2012-7-1,106.0,89.8,73.8,64.9,55.5,44.8,71,36,15,29.29,28.97,9,2,9,0.00
2012-7-2,112.5,91.0,74.1,65.8,56.1,50.4,72,35,14,17.72,17.72,5,0,7,0.00
2012-7-3,106.7,86.2,73.4,67.0,60.8,53.8,77,46,19,17.72,17.72,10,1,10,0.00
2012-7-4,111.6,89.6,70.7,68.0,55.2,43.4,82,39,13,17.72,17.72,10,1,10,0.00
2012-7-5,114.1,92.0,73.2,64.2,54.2,44.3,69,34,12,17.72,17.72,9,1,10,0.00
2012-7-6,112.6,93.1,75.7,65.3,55.4,48.3,63,31,14,17.72,17.72,10,1,10,0.00
2012-7-7,112.3,85.6,74.5,70.7,64.0,49.7,86,55,14,17.72,17.72,9,1,9,0.00
2012-7-8,118.0,83.8,71.1,73.8,65.7,51.1,97,66,12,17.72,17.72,14,1,14,0.20
2012-7-9,97.2,79.1,71.1,72.4,67.5,57.5,96,73,29,17.72,17.72,15,1,15,0.12
2012-7-10,99.1,81.6,72.1,75.5,66.7,53.1,96,65,26,17.72,17.72,14,2,14,0.00
2012-7-11,100.8,82.8,70.0,72.0,61.9,50.2,96,55,25,17.72,17.72,9,2,9,0.00
2012-7-12,102.4,84.8,69.6,69.9,60.0,48.5,90,49,18,17.72,17.72,11,2,12,0.00
2012-7-13,96.6,82.8,69.1,69.7,61.5,52.9,92,53,27,17.72,17.72,11,3,11,0.00
2012-7-14,84.7,75.7,71.2,71.6,66.6,59.8,92,75,45,17.72,17.72,5,1,5,0.04
2012-7-15,96.8,82.0,70.9,70.5,64.7,54.9,91,61,29,17.72,17.72,13,4,13,0.00
2012-7-16,99.5,83.7,73.0,70.1,65.9,58.7,89,58,27,17.72,17.72,15,4,15,0.00
2012-7-17,107.4,89.3,74.1,70.6,60.3,48.0,86,44,15,17.72,17.72,6,1,7,0.00
2012-7-18,115.7,92.0,74.3,69.4,59.6,47.3,80,41,13,17.72,17.72,4,0,5,0.00
2012-7-19,120.7,90.1,75.4,68.7,61.2,49.8,73,44,11,17.72,17.72,6,1,7,0.00
2012-7-20,115.7,90.5,74.1,68.6,58.5,45.6,80,41,12,17.72,17.72,8,1,8,0.00
2012-7-21,105.8,87.1,73.6,62.0,55.5,45.4,66,37,17,17.72,17.72,9,2,9,0.00
2012-7-22,104.7,87.0,70.5,67.1,59.9,49.8,85,45,17,17.72,17.72,10,3,10,0.00
2012-7-23,106.5,90.4,76.8,70.0,61.3,52.5,77,42,18,17.72,17.72,10,4,10,0.00
2012-7-24,110.5,91.9,78.6,62.6,57.8,51.3,58,34,15,17.72,17.72,8,2,8,0.00
2012-7-25,114.4,93.2,77.9,66.5,57.3,49.3,68,33,13,17.72,17.72,9,2,9,0.00
2012-7-26,107.8,90.4,78.6,64.7,60.1,54.5,61,39,18,17.72,17.72,8,2,8,0.04
2012-7-29,100.9,93.7,86.0,62.0,56.6,49.3,42,30,18,0.00,0.00,8,5,10,0.00
2012-7-30,119.7,94.2,75.2,68.7,56.3,46.1,74,34,11,0.00,0.00,6,1,9,0.00
2012-7-31,100.0,85.7,78.8,71.6,65.7,57.0,70,53,27,0.00,0.00,8,1,8,0.00
2012-8-1,107.6,87.9,73.4,78.4,67.9,49.7,94,59,15,0.00,0.00,10,3,14,0.79
2012-8-2,102.6,90.4,76.1,78.4,29.2,8.6,73,20,4,0.00,0.00,13,3,14,0.00
2012-8-3,105.1,89.6,78.4,20.4,17.0,8.9,10,7,4,0.00,0.00,10,2,11,0.00
2012-8-4,104.9,89.2,74.5,20.2,14.5,8.9,11,6,4,0.00,0.00,10,3,13,0.00
2012-8-5,97.0,76.8,66.3,78.6,45.1,9.0,72,42,6,0.00,0.00,9,0,9,0.63
2012-8-6,90.2,74.0,58.5,77.8,64.3,52.1,85,72,67,0.00,0.00,6,1,8,0.00
2012-8-7,93.1,74.1,58.4,80.1,63.5,49.9,77,70,66,0.00,0.00,6,1,6,0.00
2012-8-8,96.7,72.7,57.8,83.5,62.3,50.6,84,70,66,0.00,0.00,5,1,8,0.00
2012-8-9,92.9,74.6,59.8,79.9,63.9,50.4,74,69,66,0.00,0.00,6,0,8,0.00
2012-8-10,87.9,71.3,58.7,76.0,60.9,50.5,74,70,67,0.00,0.00,10,1,10,0.00
2012-8-11,85.0,66.9,49.9,73.3,57.0,42.8,79,71,67,0.00,0.00,6,1,6,0.00
2012-8-12,81.8,68.2,55.3,70.6,58.1,46.4,75,70,68,0.00,0.00,9,3,9,0.00
2012-8-13,87.3,70.9,62.5,74.8,60.3,53.0,71,69,67,0.00,0.00,9,2,9,0.00
2012-8-14,81.0,64.9,51.9,69.9,55.3,45.2,85,71,67,0.00,0.00,8,1,8,0.00
2012-8-15,87.3,71.2,56.0,75.5,60.8,47.1,72,70,67,0.00,0.00,10,4,10,0.00
2012-8-16,97.4,68.9,58.9,84.2,60.9,53.8,95,76,66,0.00,0.00,13,3,13,0.71
2012-8-17,77.1,61.4,51.9,65.7,55.4,48.7,100,81,68,0.00,0.00,4,0,4,0.00
2012-8-18,80.1,63.1,48.8,68.2,54.9,42.0,96,75,67,0.00,0.00,8,1,8,0.00
2012-8-19,88.2,62.7,50.8,76.3,55.4,46.6,96,78,66,0.00,0.00,9,1,9,0.00
2012-8-20,87.2,64.8,51.2,75.3,57.8,45.1,100,80,66,0.00,0.00,5,0,5,0.00
2012-8-21,91.3,66.7,48.5,78.8,58.5,43.2,98,76,66,0.00,0.00,3,0,3,0.00
2012-8-22,92.6,69.9,51.2,79.6,60.4,44.6,87,72,66,0.00,0.00,4,0,4,0.00
2012-8-23,93.1,70.3,51.9,80.1,60.9,47.3,90,73,66,0.00,0.00,8,1,8,0.00
2012-8-24,83.7,70.2,53.0,72.1,60.3,46.1,86,71,67,0.00,0.00,14,4,14,0.00
2012-8-25,86.4,74.1,61.4,74.0,64.9,54.5,84,73,57,29.06,0.00,12,6,14,0.04
2012-8-26,98.6,83.3,75.7,76.7,71.9,67.2,86,70,43,29.15,29.03,10,4,11,0.16
2012-8-27,106.9,84.2,74.8,76.1,69.9,65.2,87,64,36,29.18,29.06,5,0,8,0.00
2012-8-28,116.6,84.2,69.4,68.4,62.9,54.3,90,54,20,29.21,29.03,8,1,10,0.00
2012-8-29,116.2,84.3,67.5,66.1,58.9,50.6,78,46,15,29.12,28.97,6,1,8,0.00
2012-8-30,100.6,83.2,72.0,70.9,63.3,55.4,84,53,31,29.03,28.94,15,3,23,0.04
2012-8-31,80.2,77.2,74.8,75.2,73.1,70.7,93,87,80,28.97,28.85,15,6,15,0.39
2012-9-1,90.1,80.1,74.7,73.6,70.8,68.7,88,74,50,29.00,28.94,8,3,13,0.04
2012-9-2,97.0,84.8,73.9,73.5,69.8,64.2,86,64,36,29.03,28.94,4,0,6,0.00
2012-9-3,112.1,91.4,72.7,75.8,70.0,64.2,90,52,32,29.03,28.94,4,0,6,0.00
2012-9-4,116.1,88.2,74.3,75.4,72.2,67.4,92,63,24,29.03,28.91,6,1,6,0.00
2012-9-5,113.4,89.1,75.9,76.6,72.1,64.5,92,62,26,28.97,28.88,6,1,6,0.00
2012-9-6,105.4,83.4,74.1,77.0,71.6,66.6,94,72,34,29.09,28.94,8,2,8,0.00
2012-9-7,100.2,79.4,69.8,76.7,71.2,65.8,97,78,42,29.03,28.79,13,2,17,0.79
2012-9-8,70.0,70.0,70.0,68.5,68.5,68.5,95,95,95,29.03,29.03,0,0,3,0.00
2012-9-23,69.4,63.3,58.8,50.2,44.5,38.6,70,52,36,29.32,29.29,0,0,2,0.00
2012-9-24,83.8,67.2,58.1,56.9,49.3,42.1,72,53,39,29.32,29.06,13,5,13,0.00
2012-9-25,104.2,81.0,69.4,69.1,62.9,52.3,86,58,25,29.06,28.97,10,4,14,0.00
2012-9-26,87.1,76.7,69.3,70.9,66.4,62.4,92,71,50,29.18,29.03,8,2,10,0.00
2012-9-27,85.5,73.5,67.8,72.7,67.9,65.6,94,83,60,29.23,29.15,5,1,6,0.00
2012-9-28,88.2,74.9,68.9,70.4,67.7,65.4,94,80,49,29.23,29.12,6,1,6,0.04
2012-9-29,82.0,71.2,65.1,66.7,57.0,51.1,87,62,43,29.21,29.06,6,0,6,0.00
2012-9-30,74.1,67.2,61.2,58.4,55.9,52.7,85,68,49,29.09,28.91,5,0,5,0.00
2012-10-1,82.6,67.6,59.2,55.6,50.3,44.9,78,56,34,28.94,28.82,9,1,10,0.00
2012-10-2,87.6,66.5,55.2,56.5,52.3,48.0,87,63,34,29.03,28.91,4,0,5,0.00
2012-10-3,81.1,68.1,59.9,60.4,56.7,50.6,90,69,43,29.18,29.03,10,3,12,0.00
2012-10-4,90.7,72.3,59.7,60.9,57.2,54.5,90,62,32,29.29,29.18,8,3,9,0.00
2012-10-5,69.4,58.3,47.3,60.5,51.5,42.0,94,79,64,29.32,29.18,10,1,11,0.71
2012-10-6,56.1,49.0,43.2,42.2,38.2,33.3,83,68,47,29.38,29.29,6,1,8,0.00
2012-10-7,62.4,51.2,42.1,40.7,36.5,32.6,80,59,39,29.41,29.26,5,0,6,0.00
2012-10-8,71.2,55.1,43.9,45.0,40.2,37.3,88,59,37,29.35,29.18,8,2,9,0.00
2012-10-9,72.1,58.5,47.5,55.1,46.4,41.5,86,66,42,29.21,29.03,10,4,14,0.00
2012-10-10,73.8,60.0,49.8,56.3,40.8,33.0,83,51,32,29.38,29.15,8,1,8,0.00
2012-10-11,63.5,57.9,53.8,54.3,46.3,37.2,86,66,48,29.35,29.23,10,4,12,0.00
2012-10-12,61.5,59.2,57.9,59.6,57.4,54.1,98,94,86,29.38,29.23,10,2,13,1.34
2012-10-13,76.6,67.3,58.8,69.9,63.4,58.3,98,88,70,29.29,28.91,15,4,17,0.00
2012-10-14,76.1,68.0,58.8,67.9,57.9,49.7,96,73,46,29.12,28.79,13,3,15,0.43
2012-10-15,82.6,64.5,53.1,57.5,53.6,47.0,95,72,35,29.15,29.00,4,0,4,0.00
2012-10-16,82.2,66.6,55.4,55.5,50.7,42.3,92,62,31,29.03,28.79,13,3,15,0.00
2012-10-17,74.5,64.6,57.7,63.3,58.3,51.6,96,81,67,28.82,28.59,11,4,13,0.16
2012-10-18,68.5,59.4,51.3,51.3,39.5,32.3,85,51,30,28.91,28.82,8,1,11,0.00
2012-10-19,64.8,58.1,48.7,45.2,38.9,33.4,86,50,36,28.97,28.79,8,1,8,0.00
2012-10-20,79.0,59.9,45.9,48.9,44.7,40.6,87,61,34,29.03,28.91,10,2,10,0.00
2012-10-21,84.6,70.0,60.8,68.1,58.5,44.4,85,67,53,29.03,28.97,10,3,11,0.00
2012-10-22,86.0,74.9,68.9,67.4,64.4,59.9,85,71,49,29.09,29.00,11,6,13,0.00
2012-10-23,87.8,75.6,67.5,62.6,58.0,55.0,70,56,36,29.06,28.97,10,4,13,0.00
2012-10-24,85.8,74.1,66.6,65.5,62.4,59.8,87,68,45,29.09,28.97,13,6,14,0.00
2012-10-25,82.9,67.8,51.1,65.7,57.8,42.0,82,71,48,29.23,28.91,15,5,15,0.04
2012-10-26,60.3,50.8,44.1,42.6,34.6,28.0,73,55,38,29.41,29.23,9,2,11,0.00
2012-10-27,61.2,47.2,37.9,34.6,29.4,23.9,71,51,34,29.41,29.26,8,1,9,0.00
2012-10-28,60.6,45.4,34.7,33.8,28.0,22.7,76,52,35,29.38,29.26,5,0,6,0.00
2012-10-29,61.3,46.0,35.0,34.6,30.3,24.7,78,56,33,29.44,29.21,5,0,6,0.00
2012-10-30,64.7,48.6,35.9,40.6,35.4,30.9,86,63,34,29.23,29.03,4,0,5,0.00
2012-10-31,67.4,52.8,43.3,42.0,38.5,35.0,88,61,35,29.15,29.06,4,0,5,0.00
2012-11-1,71.6,54.3,41.7,46.1,41.4,38.6,92,65,34,29.18,29.03,6,1,8,0.00
2012-11-2,73.0,57.7,45.5,50.3,44.7,41.4,94,66,40,29.12,29.00,13,3,13,0.00
2012-11-3,66.7,56.5,48.4,46.8,39.4,35.3,70,53,39,29.26,29.03,8,1,9,0.00
2012-11-4,65.6,51.0,39.7,40.9,36.2,30.8,87,60,35,29.32,29.21,8,2,10,0.00
2012-11-5,55.4,50.1,46.4,45.5,40.5,33.7,86,70,53,29.21,29.06,12,3,13,0.04
2012-11-6,58.1,49.9,44.6,43.2,40.9,38.2,84,72,52,29.21,29.09,5,0,6,0.00
2012-11-7,59.2,48.6,42.2,40.2,34.6,29.3,85,60,41,29.26,29.12,8,1,8,0.00
2012-11-8,63.7,50.1,39.4,40.5,35.4,29.9,77,58,41,29.32,29.15,11,5,13,0.00
2012-11-9,71.0,59.3,49.8,53.2,46.2,37.3,71,62,50,29.18,29.06,12,6,14,0.00
2012-11-10,74.6,64.1,57.7,55.6,50.5,42.4,79,62,43,29.18,29.03,17,9,17,0.00
2012-11-11,65.3,57.6,40.1,59.6,52.4,36.5,98,84,67,29.29,28.91,17,6,18,0.63
2012-11-12,50.5,40.3,32.3,37.2,28.1,24.5,90,64,41,29.56,29.26,6,0,8,0.00
2012-11-13,56.5,42.2,33.4,38.1,30.3,22.3,90,66,36,29.65,29.47,5,0,6,0.00
2012-11-14,57.4,44.4,35.9,31.8,28.0,23.4,79,54,35,29.56,29.41,6,1,6,0.00
2012-11-15,58.8,43.5,32.9,35.2,31.2,25.7,87,65,36,29.47,29.38,4,0,5,0.00
2012-11-16,60.8,45.5,35.9,40.3,34.8,28.9,93,70,35,29.56,29.47,7,1,8,0.00
2012-11-17,61.3,45.8,35.2,37.5,31.3,25.5,92,61,33,29.59,29.44,6,1,8,0.00
2012-11-18,64.9,48.7,35.8,37.9,33.1,26.4,85,58,35,29.47,29.35,8,2,9,0.00
2012-11-19,52.3,50.2,44.6,47.2,41.7,33.9,96,74,50,29.38,29.26,10,3,10,0.08
2012-11-20,65.6,51.3,42.6,51.2,44.7,41.0,98,81,48,29.32,29.21,4,0,5,0.00
2012-11-21,66.9,51.7,41.7,49.0,42.7,38.1,95,74,42,29.41,29.23,6,1,7,0.00
2012-11-22,67.1,56.7,48.2,53.0,45.4,41.2,89,67,43,29.26,29.12,10,4,10,0.12
2012-11-23,56.3,47.0,36.1,53.4,33.2,20.2,90,60,43,29.47,29.21,6,1,6,0.04
2012-11-24,52.9,41.9,32.2,25.5,20.4,16.1,52,43,33,29.47,29.15,8,2,8,0.00
2012-11-25,69.1,51.8,38.1,38.8,29.8,20.4,58,44,32,29.15,28.97,9,3,11,0.00
2012-11-26,53.8,47.5,41.2,37.0,33.3,27.8,77,58,48,29.41,29.06,13,1,13,0.00
2012-11-27,48.4,37.5,30.0,28.8,23.1,19.0,75,57,37,29.53,29.41,5,1,5,0.00
2012-11-28,54.7,41.9,30.9,35.3,29.2,24.3,86,63,40,29.56,29.38,6,2,6,0.00
2012-11-29,63.8,49.4,37.9,37.0,31.0,27.2,68,50,34,29.38,29.21,10,4,10,0.00
2012-11-30,69.8,54.6,42.1,50.9,40.6,29.9,81,60,46,29.26,29.18,9,3,9,0.00
2012-12-1,69.4,61.3,54.1,57.4,54.0,50.0,89,77,61,29.21,29.03,13,6,14,0.00
2012-12-2,76.1,65.4,59.0,62.3,57.7,53.3,95,78,47,29.18,29.09,10,3,10,0.00
2012-12-3,74.3,65.5,59.5,59.7,56.3,51.0,95,74,46,29.12,28.97,16,5,16,0.00
2012-12-4,62.2,54.0,38.5,57.1,49.4,36.8,95,85,59,29.41,29.06,10,0,10,0.31
2012-12-5,60.2,45.7,35.6,43.6,36.3,31.3,96,73,40,29.44,29.21,8,1,8,0.00
2012-12-6,64.6,52.1,41.5,49.8,41.9,34.5,88,69,50,29.21,28.97,8,2,9,0.00
2012-12-7,66.7,56.7,48.2,53.1,50.0,46.7,95,80,54,29.00,28.91,6,1,6,0.00
2012-12-8,60.4,55.0,48.0,53.0,49.7,46.6,96,83,68,29.06,28.94,11,2,11,0.00
2012-12-9,56.8,55.6,54.7,53.7,53.0,52.5,94,91,87,28.94,28.88,9,2,9,0.20
2012-12-10,37.6,33.3,28.9,21.5,19.7,18.2,66,57,51,29.21,29.12,5,1,6,0.00
2012-12-11,45.8,34.1,25.0,24.1,21.0,17.2,79,60,37,29.35,29.21,6,2,6,0.00
2012-12-12,53.9,38.2,26.9,26.9,22.1,16.2,85,56,29,29.44,29.35,8,2,8,0.00
2012-12-13,56.3,43.7,34.0,29.0,22.6,17.5,55,43,33,29.41,29.29,10,5,10,0.00
2012-12-14,55.9,44.7,34.1,39.6,28.5,20.6,76,54,37,29.32,29.03,11,4,13,0.00
2012-12-15,66.5,54.6,46.6,51.7,40.8,32.3,95,63,36,29.03,28.79,14,5,14,0.00
2012-12-16,59.3,48.9,43.1,42.2,37.8,35.7,81,67,45,28.88,28.73,5,0,5,0.00
2012-12-17,50.5,42.8,34.9,40.6,36.7,32.8,92,80,58,28.97,28.79,4,0,4,0.00
2012-12-18,63.5,44.0,32.3,39.4,34.8,28.6,92,73,36,28.97,28.85,8,1,8,0.00
2012-12-19,59.3,49.5,38.3,56.8,45.2,35.1,96,86,71,29.00,28.61,14,5,14,0.20
2012-12-20,57.0,40.0,31.6,55.6,29.9,17.3,98,68,52,29.32,28.56,14,4,14,0.43
2012-12-21,48.0,36.3,30.0,25.6,19.7,14.7,78,52,37,29.44,29.32,6,1,6,0.00
2012-12-22,60.8,42.3,28.0,31.9,21.4,-11.4,83,51,6,29.41,29.12,8,2,8,0.00
2012-12-23,64.7,50.5,41.0,45.9,37.3,26.1,84,61,47,29.12,28.91,7,1,8,0.00
2012-12-24,49.3,40.5,31.3,45.0,28.8,17.4,87,64,47,29.15,28.91,6,0,6,0.00
2012-12-25,33.8,30.3,25.3,24.9,18.4,13.5,78,61,53,29.23,29.00,12,3,17,0.00
2012-12-26,41.3,31.9,27.5,23.6,19.1,14.4,72,59,48,29.29,29.03,8,2,9,0.00
2012-12-27,39.5,31.5,23.5,24.2,19.2,12.0,73,60,51,29.26,29.12,13,5,13,0.00
2012-12-28,37.2,34.3,30.9,32.6,27.7,22.5,85,77,68,29.15,29.00,8,1,10,0.04
2012-12-29,37.6,30.5,24.8,24.8,17.9,14.2,73,59,49,29.50,29.12,5,0,5,0.00
2012-12-30,44.8,33.4,23.3,24.8,19.9,16.8,82,59,41,29.59,29.35,9,4,9,0.00
2012-12-31,37.4,36.0,34.3,33.3,29.8,19.2,87,79,51,29.38,29.15,8,0,8,0.63
2013-1-1,37.4,34.6,25.9,34.1,29.6,16.4,89,82,64,29.38,29.15,4,0,4,0.00